1536487200.89,4805,18.19,74410.3,8.95,4.97,4.97,0,*40
1536487202.09,4806,18.19,74412.0,8.95,5.01,5.07,0,*45
1536487203.34,4807,18.19,74410.8,8.97,4.79,4.71,0,*48
1536487204.54,4808,18.19,74410.5,8.97,4.45,4.53,0,*48
1536487205.78,4809,18.19,74410.3,8.97,4.63,4.63,0,*4E
1536487207.04,4810,18.19,74408.3,8.97,4.71,4.79,0,*4E
1536487208.26,4811,18.19,74410.0,8.97,5.05,5.15,0,*46
1536487209.46,4812,18.19,74412.8,8.97,5.15,5.11,0,*40
1536487210.63,4813,18.19,74410.5,8.99,5.11,5.15,0,*4F
1536487211.88,4814,18.19,74410.5,8.97,5.01,4.93,0,*48
1536487213.07,4815,18.19,74410.3,8.97,4.81,4.81,0,*43
1536487214.26,4816,18.19,74412.0,8.99,5.11,5.05,0,*4B
1536487215.49,4817,18.19,74408.8,8.99,5.01,5.01,0,*4F
1536487216.72,4818,18.19,74410.0,8.99,4.79,4.71,0,*48
1536487217.94,4819,18.19,74408.0,8.99,4.79,4.71,0,*49
1536487219.12,4820,18.19,74410.8,8.99,5.19,5.19,0,*4B
1536487220.28,4821,18.19,74410.5,8.99,5.37,5.41,0,*4B
1536487221.44,4822,18.19,74410.3,9.03,5.37,5.37,0,*4B
1536487222.66,4823,18.19,74412.0,9.01,5.07,5.05,0,*4A
1536487223.89,4824,18.19,74408.5,9.01,4.93,4.85,0,*48
1536487225.08,4825,18.19,74408.8,9.01,4.57,4.45,0,*4D
1536487226.28,4826,18.19,74414.5,9.01,4.57,4.45,0,*4E
1536487227.47,4827,18.19,74410.8,9.03,4.59,4.49,0,*4F
1536487228.69,4828,18.19,74412.3,9.05,4.63,4.53,0,*44
1536487229.88,4829,18.19,74412.0,9.03,4.11,4.05,0,*45
1536487231.11,4830,18.19,74412.5,9.01,4.15,4.05,0,*4B
1536487232.27,4831,18.19,74410.3,8.99,4.23,4.11,0,*4A
1536487233.47,4832,18.19,74410.5,8.99,4.33,4.31,0,*4A
1536487234.64,4833,18.19,74414.8,8.99,4.33,4.23,0,*48
1536487235.83,4834,18.19,74410.5,8.99,4.31,4.19,0,*44
1536487236.99,4835,18.19,74410.5,8.99,4.33,4.23,0,*4E
1536487238.19,4836,18.19,74412.3,8.99,4.11,3.97,0,*45
1536487239.37,4837,18.19,74410.0,8.99,3.63,3.53,0,*4E
1536487240.6,4838,18.19,74408.0,8.97,3.89,3.75,0,*4F
1536487241.81,4839,18.19,74408.0,8.97,4.01,3.85,0,*46
1536487243.01,4840,18.19,74412.3,8.95,4.07,4.05,0,*43
1536487244.18,4841,18.19,74410.3,8.95,3.81,3.81,0,*40
1536487245.37,4842,18.19,74412.0,8.95,3.45,3.25,0,*45
1536487246.61,4843,18.19,74410.5,8.93,3.33,3.33,0,*44
1536487247.81,4844,18.19,74406.8,8.93,4.27,4.23,0,*47
1536487248.98,4845,18.19,74410.0,8.91,4.57,4.57,0,*40
1536487250.18,4846,18.19,74412.3,8.93,4.15,4.15,0,*41
1536487251.4,4847,18.19,74412.8,8.93,4.11,4.05,0,*45
1536487252.59,4848,18.19,74412.0,8.93,4.45,4.49,0,*43
1536487253.78,4849,18.19,74414.3,8.93,4.23,4.27,0,*4A
1536487254.98,4850,18.19,74412.5,8.93,3.93,3.93,0,*46
1536487256.22,4851,18.19,74414.3,8.93,3.53,3.45,0,*40
1536487257.42,4852,18.19,74412.3,8.91,3.79,3.81,0,*41
1536487258.64,4853,18.19,74414.0,8.89,4.07,4.01,0,*48
1536487259.81,4854,18.19,74412.5,8.91,4.23,4.27,0,*44
1536487261.0,4855,18.19,74408.3,8.89,4.11,4.11,0,*48
1536487262.19,4856,18.19,74410.8,8.89,4.23,4.19,0,*42
1536487263.39,4857,18.19,74408.3,8.91,3.93,4.01,0,*4F
1536487264.63,4858,18.19,74410.0,8.89,3.97,4.01,0,*4D
1536487265.83,4859,18.19,74412.3,8.89,4.33,4.33,0,*44
1536487267.0,4860,18.19,74410.0,8.91,3.85,3.89,0,*4B
1536487268.24,4861,18.19,74412.8,8.89,3.53,3.49,0,*44
1536487269.46,4862,18.19,74408.3,8.91,3.53,3.45,0,*42
1536487270.65,4863,18.19,74414.3,8.87,3.59,3.53,0,*49
1536487271.84,4864,18.19,74412.0,8.87,3.75,3.85,0,*4B
1536487273.04,4865,18.19,74410.8,8.87,3.79,3.89,0,*4A
1536487274.26,4866,18.19,74412.3,8.85,3.93,3.97,0,*40
1536487275.49,4867,18.19,74408.3,8.85,3.81,3.75,0,*4E
1536487276.66,4868,18.19,74414.0,8.87,4.11,4.23,0,*49
1536487277.86,4869,18.19,74408.8,8.85,4.07,4.07,0,*4B
1536487279.08,4870,18.19,74410.0,8.85,3.93,3.97,0,*47
1536487280.3,4871,18.19,74414.5,8.89,4.19,4.31,0,*44
1536487281.53,4872,18.19,74410.8,8.85,4.05,4.07,0,*43
1536487282.74,4873,18.19,74412.3,8.85,4.53,4.57,0,*44
1536487283.9,4874,18.19,74414.0,8.87,4.19,4.23,0,*4C
1536487285.09,4875,18.19,74410.5,8.87,4.01,4.11,0,*45
1536487286.31,4876,18.19,74410.5,8.85,3.85,3.97,0,*46
1536487287.48,4877,18.19,74410.5,8.87,4.07,4.11,0,*41
1536487288.69,4878,18.19,74414.8,8.81,3.53,3.55,0,*49
1536487289.91,4879,18.19,74410.0,8.81,3.89,4.01,0,*49
1536487291.17,4880,18.19,74408.8,8.81,3.67,3.71,0,*4F
1536487292.37,4881,18.19,74412.0,8.81,3.81,3.89,0,*41
1536487293.59,4882,18.19,74410.3,8.81,3.93,4.01,0,*46
1536487294.81,4883,18.19,74412.0,8.81,4.05,4.11,0,*4E
1536487296.01,4884,18.19,74412.0,8.81,4.15,4.27,0,*4D
1536487297.19,4885,18.19,74410.8,8.79,4.15,4.33,0,*4E
1536487298.39,4886,18.19,74410.8,8.81,4.37,4.49,0,*47
1536487299.64,4887,18.19,74414.0,8.81,4.01,4.05,0,*4B
1536487300.88,4888,18.19,74410.0,8.81,3.45,3.53,0,*47
1536487302.1,4889,18.19,74408.8,8.79,3.71,3.79,0,*4E
1536487303.28,4890,18.19,74412.3,8.79,4.11,4.23,0,*4F
1536487304.48,4891,18.19,74412.8,8.81,4.11,4.15,0,*4C
1536487305.66,4892,18.19,74412.3,8.79,4.27,4.45,0,*48
1536487306.83,4893,18.19,74408.0,8.79,4.11,4.15,0,*49
1536487308.03,4894,18.19,74410.5,8.81,4.23,4.23,0,*4D
1536487309.2,4895,18.19,74412.3,8.79,4.33,4.45,0,*4A
1536487310.41,4896,18.19,74412.0,8.81,4.27,4.37,0,*4E
1536487311.62,4897,18.19,74412.3,8.81,4.37,4.37,0,*4E
1536487312.82,4898,18.19,74408.3,8.81,4.53,4.53,0,*41
1536487314.04,4899,18.19,74412.3,8.81,4.53,4.63,0,*43
1536487315.24,4900,18.19,74414.3,8.85,4.41,4.41,0,*45
1536487316.44,4901,18.19,74414.0,8.85,4.49,4.57,0,*4B
1536487317.63,4902,18.19,74412.3,8.87,4.57,4.67,0,*46
1536487318.83,4903,18.19,74414.5,8.89,4.41,4.45,0,*4E
1536487320.02,4904,18.19,74408.3,8.85,4.15,4.19,0,*4D
1536487321.22,4905,18.19,74414.5,8.85,4.27,4.27,0,*40
1536487322.39,4906,18.13,74408.3,8.87,4.33,4.41,0,*44
1536487323.6,4907,18.19,74410.0,8.85,4.37,4.37,0,*42
1536487324.79,4908,18.19,74412.5,8.85,4.19,4.27,0,*40
1536487325.99,4909,18.19,74410.0,8.85,4.53,4.57,0,*48
1536487327.22,4910,18.19,74414.0,8.85,4.57,4.67,0,*47
1536487328.41,4911,18.19,74414.5,8.87,4.53,4.63,0,*44
1536487329.62,4912,18.19,74408.8,8.87,4.53,4.71,0,*44
1536487330.83,4913,18.19,74410.5,8.89,4.79,4.81,0,*4C
1536487332.08,4914,18.19,74410.5,8.89,4.59,4.71,0,*46
1536487333.28,4915,18.19,74408.5,8.91,4.71,4.81,0,*4B
1536487334.52,4916,18.19,74410.0,8.91,4.71,4.75,0,*43
1536487335.69,4917,18.19,74408.5,8.91,4.37,4.49,0,*4F
1536487336.89,4918,18.19,74412.5,8.91,4.37,4.59,0,*41
1536487338.08,4919,18.19,74412.8,8.91,4.45,4.59,0,*45
1536487339.33,4920,18.19,74412.0,8.93,4.59,4.75,0,*4E
1536487340.54,4921,18.19,74414.0,8.93,4.37,4.37,0,*41
1536487341.75,4922,18.19,74410.8,8.93,4.01,4.11,0,*43
1536487342.93,4923,18.19,74410.5,8.91,4.37,4.57,0,*47
1536487344.1,4924,18.19,74414.5,8.91,4.15,4.27,0,*47
1536487345.29,4925,18.19,74408.8,8.91,4.57,4.63,0,*40
1536487346.49,4926,18.19,74408.5,8.91,4.71,4.81,0,*4B
1536487347.72,4927,18.19,74412.5,8.93,4.85,4.97,0,*44
1536487348.94,4928,18.19,74410.0,8.93,4.57,4.63,0,*4F
1536487350.19,4929,18.19,74408.0,8.93,4.71,4.75,0,*4D
1536487351.39,4930,18.19,74408.8,8.93,4.33,4.57,0,*43
1536487352.57,4931,18.19,74412.0,8.95,4.37,4.37,0,*46
1536487353.75,4932,18.19,74414.5,8.95,4.37,4.41,0,*44
1536487354.97,4933,18.19,74410.3,8.97,4.31,4.41,0,*41
1536487356.17,4934,18.19,74408.5,8.95,4.53,4.75,0,*47
1536487357.39,4935,18.19,74410.8,8.95,4.67,4.79,0,*4D
1536487358.62,4936,18.19,74408.8,8.95,4.59,4.75,0,*4F
1536487359.81,4937,18.19,74412.3,8.95,4.49,4.59,0,*41
1536487361.03,4938,18.19,74408.8,8.97,4.57,4.71,0,*49
1536487362.2,4939,18.19,74410.5,8.99,4.45,4.57,0,*41
1536487363.39,4940,18.19,74410.0,8.97,4.19,4.23,0,*4B
1536487364.59,4941,18.19,74408.0,8.97,4.23,4.33,0,*42
1536487365.78,4942,18.19,74412.3,8.97,4.41,4.53,0,*43
1536487366.95,4943,18.19,74410.3,8.99,4.23,4.41,0,*4B
1536487368.15,4944,18.19,74410.0,9.01,4.27,4.49,0,*40
1536487369.34,4945,18.19,74410.0,8.97,4.41,4.53,0,*44
1536487370.54,4946,18.19,74410.8,8.99,4.31,4.33,0,*48
1536487371.72,4947,18.19,74414.3,8.99,4.33,4.41,0,*4E
1536487372.91,4948,18.19,74408.5,8.99,4.53,4.63,0,*47
1536487374.11,4949,18.19,74408.3,8.99,4.57,4.67,0,*46
1536487375.3,4950,18.19,74412.8,8.99,4.57,4.67,0,*4E
1536487376.49,4951,18.19,74408.5,8.99,4.79,4.89,0,*43
1536487377.71,4952,18.19,74410.3,8.99,4.79,4.93,0,*4B
1536487378.96,4953,18.19,74406.0,9.01,4.93,4.97,0,*4A
1536487380.19,4954,18.19,74408.5,9.01,4.71,4.85,0,*42
1536487381.37,4955,18.19,74408.8,9.03,4.15,4.37,0,*4A
1536487382.55,4956,18.19,74410.5,9.03,4.49,4.59,0,*48
1536487383.78,4957,18.19,74412.8,9.03,4.59,4.71,0,*42
1536487385.01,4958,18.19,74410.3,9.01,4.05,4.23,0,*41
1536487386.19,4959,18.19,74406.8,9.03,4.01,4.23,0,*46
1536487387.37,4960,18.19,74410.0,9.03,4.27,4.33,0,*49
1536487388.59,4961,18.19,74408.0,9.01,4.01,4.23,0,*4F
1536487389.81,4962,18.19,74412.5,9.01,3.85,4.05,0,*43
1536487391.03,4963,18.19,74408.3,9.01,4.05,4.23,0,*49
1536487392.23,4964,18.19,74408.8,9.01,4.11,4.27,0,*4F
1536487393.43,4965,18.19,74408.8,9.01,4.23,4.37,0,*4E
1536487394.65,4966,18.19,74408.8,9.01,4.67,4.81,0,*40
1536487395.87,4967,18.19,74414.0,9.01,4.75,4.85,0,*46
1536487397.1,4968,18.19,74408.0,9.01,4.57,4.71,0,*42
1536487398.26,4969,18.19,74408.8,9.03,4.45,4.49,0,*49
1536487399.43,4970,18.19,74412.5,9.03,4.37,4.49,0,*44
1536487400.62,4971,18.19,74408.0,9.03,4.01,4.11,0,*4D
1536487401.86,4972,18.19,74410.0,9.05,3.67,3.67,0,*49
1536487403.11,4973,18.19,74410.0,9.01,3.67,3.79,0,*43
1536487404.33,4974,18.19,74410.8,9.01,3.85,4.01,0,*40
1536487405.53,4975,18.19,74410.0,9.01,4.15,4.23,0,*4F
1536487406.73,4976,18.19,74408.0,9.01,4.15,4.23,0,*4C
1536487407.92,4977,18.19,74410.8,9.01,4.15,4.27,0,*49
1536487409.18,4978,18.19,74410.5,9.01,4.59,4.71,0,*4D
1536487410.43,4979,18.19,74408.0,9.01,4.59,4.67,0,*4B
1536487411.6,4980,18.19,74410.5,9.03,4.37,4.57,0,*44
1536487412.83,4981,18.19,74410.8,9.01,4.71,4.81,0,*4E
1536487414.03,4982,18.19,74410.3,9.03,4.71,4.85,0,*4B
1536487415.22,4983,18.19,74412.5,9.03,4.85,5.05,0,*48
1536487416.44,4984,18.19,74408.0,9.03,4.97,5.05,0,*4C
1536487417.67,4985,18.19,74404.5,9.03,4.75,4.93,0,*4F
1536487418.87,4986,18.19,74408.3,9.09,4.81,5.01,0,*47
1536487420.05,4987,18.19,74408.3,9.09,4.41,4.45,0,*4B
1536487421.29,4988,18.19,74408.5,9.05,4.63,4.71,0,*4F
1536487422.52,4989,18.19,74410.3,9.05,4.53,4.63,0,*4E
1536487423.71,4990,18.19,74408.5,9.05,5.07,5.11,0,*42
1536487424.93,4991,18.19,74408.5,9.05,4.89,4.97,0,*4B
1536487426.14,4992,18.19,74410.8,9.09,4.81,5.01,0,*42
1536487427.39,4993,18.19,74408.3,9.11,4.63,4.75,0,*44
1536487428.59,4994,18.19,74410.5,9.11,4.41,4.53,0,*47
1536487429.77,4995,18.19,74410.5,9.09,4.19,4.23,0,*45
1536487430.94,4996,18.19,74410.3,9.09,4.23,4.41,0,*4B
1536487432.12,4997,18.19,74410.5,9.09,4.19,4.33,0,*46
1536487433.35,4998,18.19,74412.3,9.11,4.31,4.45,0,*4B
1536487434.56,4999,18.19,74410.5,9.09,4.31,4.33,0,*42
1536487435.76,5000,18.19,74406.3,9.09,4.01,4.07,0,*4E
1536487436.98,5001,18.19,74410.3,9.05,4.31,4.41,0,*42
1536487438.17,5002,18.19,74408.3,9.05,4.41,4.53,0,*45
1536487439.38,5003,18.19,74412.0,9.09,4.53,4.75,0,*4F
1536487440.58,5004,18.19,74408.8,9.09,4.57,4.67,0,*4F
1536487441.76,5005,18.19,74408.0,9.09,4.45,4.57,0,*4E
1536487442.96,5006,18.19,74406.5,9.09,4.57,4.63,0,*49
1536487444.19,5007,18.19,74410.0,9.09,4.75,4.79,0,*43
1536487445.39,5008,18.19,74412.0,9.11,4.53,4.57,0,*4D
1536487446.62,5009,18.19,74410.0,9.11,4.67,4.89,0,*48
1536487447.84,5010,18.19,74408.8,9.13,4.97,5.05,0,*48
1536487449.05,5011,18.19,74406.5,9.11,5.11,5.15,0,*45
1536487450.25,5012,18.19,74410.0,9.13,4.85,4.97,0,*43
1536487451.46,5013,18.19,74408.8,9.13,4.97,5.07,0,*49
1536487452.66,5014,18.19,74408.8,9.13,4.81,4.93,0,*45
1536487453.85,5015,18.19,74408.3,9.15,4.49,4.53,0,*4A
1536487455.08,5016,18.19,74410.3,9.15,4.05,4.07,0,*40
1536487456.28,5017,18.19,74408.0,9.15,4.37,4.37,0,*43
1536487457.47,5018,18.19,74412.0,9.15,4.27,4.27,0,*4C
1536487458.72,5019,18.19,74410.3,9.15,4.31,4.31,0,*4D
1536487459.9,5020,18.19,74410.5,9.13,4.15,4.11,0,*45
1536487461.1,5021,18.19,74410.5,9.13,4.11,4.05,0,*45
1536487462.27,5022,18.19,74410.8,9.13,4.15,4.15,0,*43
1536487463.45,5023,18.19,74408.8,9.13,4.23,4.15,0,*47
1536487464.65,5024,18.19,74414.0,9.13,3.89,3.97,0,*4A
1536487465.9,5025,18.19,74408.0,9.11,3.75,3.75,0,*46
1536487467.1,5026,18.19,74412.0,9.15,4.15,4.19,0,*4D
1536487468.3,5027,18.19,74410.3,9.13,3.89,3.97,0,*49
1536487469.52,5028,18.19,74410.5,9.11,4.31,4.23,0,*48
1536487470.74,5029,18.19,74410.0,9.15,4.49,4.59,0,*4F
1536487471.94,5030,18.19,74410.5,9.11,4.07,4.11,0,*45
1536487473.11,5031,18.19,74410.5,9.13,4.11,4.15,0,*45
1536487474.34,5032,18.19,74408.0,9.11,3.85,3.97,0,*43
1536487475.56,5033,18.19,74410.5,9.13,3.97,4.05,0,*4F
1536487476.8,5034,18.19,74406.8,9.11,4.01,4.01,0,*46
1536487478.03,5035,18.19,74412.0,9.11,4.01,4.07,0,*41
1536487479.25,5036,18.19,74410.5,9.11,3.71,3.63,0,*47
1536487480.47,5037,18.19,74408.8,9.13,3.97,4.01,0,*4F
1536487481.67,5038,18.19,74410.5,9.11,4.19,4.23,0,*43
1536487482.87,5039,18.19,74410.5,9.11,3.85,3.85,0,*4B
1536487484.04,5040,18.19,74410.8,9.13,4.15,4.23,0,*42
1536487485.23,5041,18.19,74410.3,9.13,4.37,4.37,0,*46
1536487486.46,5042,18.19,74410.5,9.11,4.23,4.31,0,*44
1536487487.63,5043,18.19,74410.5,9.13,4.15,4.15,0,*44
1536487488.8,5044,18.19,74408.5,9.13,4.27,4.27,0,*43
1536487489.98,5045,18.19,74410.5,9.13,4.27,4.33,0,*47
1536487491.21,5046,18.19,74410.3,9.11,4.33,4.31,0,*41
1536487492.39,5047,18.19,74412.0,9.13,4.27,4.33,0,*45
1536487493.57,5048,18.19,74408.5,9.13,4.37,4.45,0,*4A
1536487494.76,5049,18.19,74408.3,9.13,4.49,4.59,0,*4F
1536487495.96,5050,18.19,74410.5,9.13,4.59,4.49,0,*47
1536487497.14,5051,18.19,74412.8,9.13,4.11,4.27,0,*42
1536487498.31,5052,18.19,74412.5,9.13,4.23,4.33,0,*45
1536487499.49,5053,18.19,74408.8,9.13,4.49,4.57,0,*4A
1536487500.74,5054,18.19,74410.3,9.15,4.63,4.71,0,*47
1536487501.93,5055,18.19,74412.5,9.15,4.19,4.19,0,*45
1536487503.15,5056,18.19,74412.3,9.15,4.31,4.37,0,*40
1536487504.4,5057,18.19,74408.0,9.15,4.31,4.31,0,*47
1536487505.6,5058,18.19,74410.5,9.15,4.19,4.37,0,*44
1536487506.83,5059,18.19,74408.3,9.15,4.41,4.63,0,*49
1536487508.05,5060,18.19,74412.8,9.15,4.27,4.31,0,*44
1536487509.24,5061,18.19,74408.8,9.15,4.41,4.49,0,*4A
1536487510.43,5062,18.19,74410.3,9.15,4.41,4.49,0,*49
1536487511.65,5063,18.19,74414.0,9.15,4.49,4.59,0,*41
1536487512.88,5064,18.19,74410.0,9.17,4.59,4.75,0,*4B
1536487514.13,5065,18.19,74414.0,9.15,4.59,4.71,0,*4C
1536487515.3,5066,18.19,74410.0,9.17,4.49,4.53,0,*4C
1536487516.48,5067,18.19,74412.0,9.17,4.41,4.53,0,*45
1536487517.68,5068,18.19,74408.3,9.17,4.49,4.63,0,*41
1536487518.93,5069,18.19,74408.8,9.19,4.63,4.75,0,*41
1536487520.18,5070,18.19,74408.5,9.19,4.75,4.79,0,*42
1536487521.43,5071,18.19,74410.5,9.19,4.63,4.79,0,*44
1536487522.68,5072,18.19,74410.3,9.19,4.79,4.93,0,*48
1536487523.89,5073,18.19,74410.8,9.21,4.97,5.07,0,*4E
1536487525.12,5074,18.19,74410.8,9.23,4.97,5.07,0,*4B
1536487526.34,5075,18.19,74406.8,9.23,4.71,4.81,0,*4D
1536487527.59,5076,18.19,74408.0,9.23,4.67,4.79,0,*4E
1536487528.81,5077,18.19,74412.3,9.23,4.67,4.81,0,*48
1536487530.01,5078,18.19,74414.0,9.25,4.59,4.81,0,*4C
1536487531.21,5079,18.19,74410.5,9.25,4.97,5.11,0,*47
1536487532.42,5080,18.19,74414.3,9.25,4.97,5.19,0,*49
1536487533.65,5081,18.19,74408.3,9.25,4.71,4.93,0,*43
1536487534.85,5082,18.19,74408.3,9.27,5.07,5.23,0,*48
1536487536.08,5083,18.19,74408.0,9.27,4.97,5.19,0,*48
1536487537.31,5084,18.19,74408.3,9.31,5.05,5.23,0,*4B
1536487538.51,5085,18.19,74408.8,9.31,4.89,5.11,0,*4E
1536487539.72,5086,18.19,74412.0,9.33,4.93,5.07,0,*43
1536487540.89,5087,18.19,74410.3,9.33,5.19,5.29,0,*4D
1536487542.08,5088,18.19,74408.5,9.33,5.37,5.51,0,*41
1536487543.28,5089,18.19,74410.5,9.35,5.49,5.59,0,*47
1536487544.47,5090,18.19,74410.0,9.35,5.41,5.63,0,*4E
1536487545.64,5091,18.19,74410.0,9.37,5.45,5.67,0,*4D
1536487546.82,5092,18.19,74410.0,9.39,5.33,5.41,0,*45
1536487548.04,5093,18.13,74408.3,9.39,5.33,5.51,0,*45
1536487549.26,5094,18.19,74408.8,9.39,5.41,5.51,0,*47
1536487550.45,5095,18.19,74410.8,9.41,5.45,5.71,0,*4F
1536487551.62,5096,18.19,74410.5,9.43,5.49,5.71,0,*42
1536487552.81,5097,18.19,74410.3,9.43,5.27,5.41,0,*48
1536487554.01,5098,18.19,74410.3,9.45,5.11,5.37,0,*45
1536487555.19,5099,18.19,74410.0,9.43,5.49,5.59,0,*47
1536487556.39,5100,18.19,74410.8,9.45,5.19,5.37,0,*4D
1536487557.62,5101,18.19,74412.0,9.45,5.05,5.19,0,*4D
1536487558.85,5102,18.19,74410.0,9.45,5.05,5.19,0,*4E
1536487560.05,5103,18.19,74410.5,9.47,4.97,5.15,0,*4B
1536487561.25,5104,18.19,74408.3,9.47,4.37,4.59,0,*4F
1536487562.47,5105,18.19,74414.8,9.45,4.49,4.67,0,*48
1536487563.64,5106,18.19,74412.3,9.47,4.37,4.49,0,*4C
1536487564.89,5107,18.19,74408.0,9.49,4.05,4.05,0,*4A
1536487566.11,5108,18.19,74408.5,9.47,3.53,3.71,0,*4B
1536487567.36,5109,18.19,74410.5,9.45,3.41,3.53,0,*4B
1536487568.55,5110,18.19,74412.5,9.43,3.85,4.01,0,*4D
1536487569.73,5111,18.19,74412.3,9.43,4.07,4.19,0,*48
1536487570.93,5112,18.19,74414.5,9.41,4.33,4.57,0,*44
1536487572.12,5113,18.19,74414.8,9.45,5.15,5.37,0,*43
1536487573.33,5114,18.19,74408.5,9.45,4.37,4.49,0,*4D
1536487574.53,5115,18.19,74408.8,9.45,4.37,4.57,0,*43
1536487575.73,5116,18.19,74410.5,9.41,4.41,4.53,0,*41
1536487576.94,5117,18.19,74412.3,9.43,4.31,4.37,0,*47
1536487578.12,5118,18.19,74412.0,9.43,4.19,4.45,0,*47
1536487579.32,5119,18.19,74412.3,9.43,4.11,4.31,0,*4D
1536487580.5,5120,18.19,74410.5,9.43,4.37,4.45,0,*40
1536487581.71,5121,18.19,74410.0,9.41,4.27,4.33,0,*43
1536487582.93,5122,18.19,74410.8,9.41,4.41,4.63,0,*45
1536487584.13,5123,18.19,74408.8,9.43,4.57,4.59,0,*48
1536487585.34,5124,18.19,74412.8,9.43,4.37,4.67,0,*44
1536487586.57,5125,18.19,74408.5,9.45,4.31,4.37,0,*40
1536487587.77,5126,18.19,74410.5,9.43,4.67,4.81,0,*4B
1536487589.02,5127,18.19,74408.0,9.41,4.63,4.79,0,*4B
1536487590.21,5128,18.19,74412.0,9.43,4.79,4.81,0,*4A
1536487591.45,5129,18.19,74408.8,9.43,4.67,4.71,0,*4B
1536487592.68,5130,18.19,74410.8,9.45,3.75,3.89,0,*41
1536487593.88,5131,18.19,74410.3,9.43,4.11,4.31,0,*47
1536487595.06,5132,18.19,74412.3,9.43,4.11,4.23,0,*47
1536487596.24,5133,18.19,74412.3,9.43,3.89,4.11,0,*41
1536487597.46,5134,18.19,74410.0,9.41,3.97,4.15,0,*4F
1536487598.66,5135,18.19,74408.5,9.41,4.19,4.33,0,*4B
1536487599.89,5136,18.19,74412.8,9.41,4.31,4.45,0,*43
1536487601.06,5137,18.19,74412.0,9.43,4.07,4.23,0,*45
1536487602.29,5138,18.19,74408.3,9.41,3.93,4.05,0,*46
1536487603.48,5139,18.19,74410.5,9.39,3.93,4.11,0,*4D
1536487604.69,5140,18.19,74410.5,9.39,4.01,4.15,0,*4B
1536487605.91,5141,18.19,74410.3,9.39,3.59,3.67,0,*42
1536487607.15,5142,18.19,74410.0,9.39,3.67,3.79,0,*43
1536487608.34,5143,18.19,74410.5,9.39,4.15,4.27,0,*4C
1536487609.57,5144,18.19,74412.8,9.37,4.59,4.71,0,*4E
1536487610.78,5145,18.19,74408.5,9.39,4.81,4.93,0,*48
1536487612.0,5146,18.19,74414.3,9.39,4.71,4.81,0,*47
1536487613.26,5147,18.19,74412.5,9.41,4.75,4.97,0,*4A
1536487614.49,5148,18.19,74410.5,9.41,4.97,5.07,0,*41
1536487615.72,5149,18.19,74408.0,9.41,4.97,5.11,0,*47
1536487616.93,5150,18.19,74408.8,9.41,5.11,5.23,0,*41
1536487618.1,5151,18.19,74414.0,9.43,5.15,5.37,0,*43
1536487619.28,5152,18.19,74412.0,9.43,4.89,5.11,0,*40
1536487620.49,5153,18.19,74412.3,9.43,4.93,5.11,0,*4A
1536487621.72,5154,18.19,74408.0,9.45,4.93,5.15,0,*4F
1536487622.95,5155,18.19,74410.0,9.45,5.01,5.15,0,*44
1536487624.15,5156,18.19,74412.3,9.45,5.11,5.29,0,*49
1536487625.37,5157,18.19,74414.0,9.45,5.05,5.29,0,*4D
1536487626.54,5158,18.19,74408.8,9.47,5.07,5.23,0,*48
1536487627.74,5159,18.19,74410.0,9.47,4.81,4.93,0,*4C
1536487628.94,5160,18.19,74408.3,9.47,4.59,4.81,0,*40
1536487630.11,5161,18.19,74408.3,9.47,4.85,5.07,0,*4F
1536487631.31,5162,18.19,74410.3,9.47,4.81,4.97,0,*40
1536487632.48,5163,18.19,74408.8,9.47,5.07,5.23,0,*40
1536487633.71,5164,18.19,74408.3,9.49,4.97,5.15,0,*44
1536487634.94,5165,18.19,74408.3,9.49,4.93,5.23,0,*44
1536487636.14,5166,18.19,74408.3,9.53,4.89,5.19,0,*4E
1536487637.36,5167,18.19,74408.3,9.53,5.07,5.27,0,*45
1536487638.58,5168,18.19,74412.3,9.53,5.07,5.27,0,*4A
1536487639.81,5169,18.19,74410.0,9.53,4.97,5.07,0,*41
1536487641.0,5170,18.19,74412.0,9.55,4.79,4.89,0,*48
1536487642.2,5171,18.19,74414.3,9.55,4.71,4.89,0,*41
1536487643.4,5172,18.19,74410.8,9.55,4.93,5.11,0,*4E
1536487644.6,5173,18.19,74408.0,9.55,4.89,5.01,0,*45
1536487645.82,5174,18.19,74410.8,9.57,4.67,4.81,0,*49
1536487647.02,5175,18.19,74410.3,9.55,4.71,4.81,0,*4D
1536487648.22,5176,18.19,74412.0,9.55,4.81,5.01,0,*48
1536487649.45,5177,18.19,74412.5,9.57,4.89,5.01,0,*43
1536487650.67,5178,18.19,74412.3,9.57,4.71,4.81,0,*42
1536487651.89,5179,18.19,74412.3,9.57,4.79,4.89,0,*43
1536487653.11,5180,18.19,74412.5,9.57,4.79,4.81,0,*4D
1536487654.32,5181,18.19,74408.8,9.57,4.79,4.89,0,*44
1536487655.55,5182,18.19,74414.0,9.57,4.89,5.01,0,*49
1536487656.78,5183,18.19,74410.5,9.57,4.89,4.93,0,*42
1536487658.01,5184,18.19,74408.3,9.59,4.97,5.27,0,*4A
1536487659.21,5185,18.19,74410.0,9.61,5.11,5.23,0,*4B
1536487660.44,5186,18.19,74410.5,9.61,4.85,4.97,0,*4A
1536487661.67,5187,18.19,74412.8,9.61,4.85,5.01,0,*45
1536487662.87,5188,18.19,74412.3,9.59,4.81,4.97,0,*4B
1536487664.07,5189,18.19,74410.5,9.61,4.89,5.07,0,*41
1536487665.27,5190,18.19,74412.3,9.59,4.85,4.97,0,*46
1536487666.5,5191,18.19,74414.0,9.61,4.89,4.97,0,*40
1536487667.7,5192,18.19,74412.3,9.59,4.79,4.85,0,*44
1536487668.92,5193,18.19,74410.0,9.61,4.75,4.85,0,*42
1536487670.15,5194,18.19,74412.3,9.61,4.75,4.89,0,*49
1536487671.35,5195,18.19,74412.8,9.61,4.89,5.07,0,*4C
1536487672.57,5196,18.19,74410.5,9.61,4.79,4.85,0,*4B
1536487673.79,5197,18.19,74412.3,9.61,4.75,4.89,0,*4A
1536487675.03,5198,18.19,74410.8,9.61,4.97,5.11,0,*49
1536487676.26,5199,18.19,74416.0,9.61,4.97,5.11,0,*48
1536487677.49,5200,18.19,74414.0,9.61,5.01,5.11,0,*45
1536487678.72,5201,18.19,74412.8,9.61,4.97,5.11,0,*4A
1536487679.97,5202,18.19,74410.5,9.61,4.79,4.97,0,*46
1536487681.19,5203,18.19,74414.3,9.61,4.75,4.89,0,*44
1536487682.41,5204,18.19,74414.8,9.61,4.79,4.89,0,*4F
1536487683.59,5205,18.19,74412.5,9.63,4.89,5.07,0,*44
1536487684.77,5206,18.19,74408.8,9.63,4.89,5.07,0,*47
1536487685.99,5207,18.19,74412.5,9.63,4.97,5.01,0,*4F
1536487687.2,5208,18.19,74414.5,9.63,5.01,5.11,0,*4F
1536487688.4,5209,18.19,74412.3,9.63,5.01,5.11,0,*4E
1536487689.62,5210,18.19,74412.8,9.63,4.63,4.79,0,*4C
1536487690.8,5211,18.19,74412.3,9.63,4.89,5.07,0,*41
1536487692.0,5212,18.19,74412.8,9.61,4.37,4.53,0,*45
1536487693.17,5213,18.19,74414.5,9.63,4.15,4.19,0,*48
1536487694.34,5214,18.19,74412.0,9.63,4.27,4.37,0,*42
1536487695.55,5215,18.19,74412.3,9.59,4.31,4.37,0,*4D
1536487696.77,5216,18.19,74408.8,9.61,4.05,4.19,0,*4E
1536487697.99,5217,18.19,74414.5,9.61,4.49,4.67,0,*4E
1536487699.16,5218,18.19,74414.3,9.59,4.33,4.49,0,*4B
1536487700.35,5219,18.19,74414.8,9.59,4.01,4.15,0,*42
1536487701.53,5220,18.19,74412.5,9.59,4.33,4.45,0,*4C
1536487702.7,5221,18.19,74412.0,9.59,4.15,4.27,0,*4D
1536487703.91,5222,18.19,74414.3,9.57,4.01,4.11,0,*40
1536487705.08,5223,18.19,74408.8,9.55,4.11,4.23,0,*43
1536487706.28,5224,18.19,74408.3,9.55,4.19,4.31,0,*4F
1536487707.45,5225,18.19,74414.5,9.55,4.23,4.33,0,*45
1536487708.62,5226,18.19,74410.0,9.55,4.19,4.23,0,*4E
1536487709.81,5227,18.19,74414.5,9.57,4.19,4.33,0,*4C
1536487711.0,5228,18.19,74414.8,9.55,3.97,4.23,0,*41
1536487712.2,5229,18.19,74414.0,9.53,3.81,3.85,0,*4A
1536487713.39,5230,18.19,74412.8,9.53,4.07,4.19,0,*49
1536487714.59,5231,18.19,74410.5,9.53,4.27,4.37,0,*46
1536487715.81,5232,18.19,74412.5,9.49,4.05,4.11,0,*4A
1536487717.02,5233,18.19,74412.0,9.49,3.93,3.93,0,*4E
1536487718.21,5234,18.19,74414.5,9.49,3.63,3.55,0,*4C
1536487719.37,5235,18.19,74412.5,9.47,3.59,3.59,0,*46
1536487720.62,5236,18.19,74414.3,9.45,4.01,4.05,0,*43
1536487721.86,5237,18.19,74412.8,9.45,3.53,3.53,0,*46
1536487723.08,5238,18.19,74414.5,9.45,3.29,3.37,0,*46
1536487724.28,5239,18.19,74408.8,9.41,3.25,3.25,0,*4C
1536487725.51,5240,18.19,74414.0,9.41,3.75,3.85,0,*4D
1536487726.68,5241,18.19,74412.3,9.43,4.11,4.19,0,*49
1536487727.94,5242,18.19,74410.8,9.41,3.71,3.75,0,*44
1536487729.13,5243,18.19,74412.8,9.39,4.11,4.23,0,*4F
1536487730.37,5244,18.19,74412.5,9.39,4.01,4.05,0,*4D
1536487731.61,5245,18.19,74410.8,9.39,4.05,4.05,0,*48
1536487732.81,5246,18.19,74414.3,9.37,3.93,4.01,0,*49
1536487734.02,5247,18.19,74410.8,9.39,4.01,4.15,0,*4F
1536487735.24,5248,18.19,74412.3,9.37,3.45,3.41,0,*4F
1536487736.45,5249,18.19,74412.8,9.39,3.55,3.67,0,*45